| time (UTC) | temp C | wind direction | speed KPH | gust KPH | rain 1hr cm | rain 24hr cm | rain mn cm | humidity % | barometer mb |
| 20260506175505 | 12 | 0 | 0.0 | 0.0 | 0.00 | 0.94 | 0.94 | 49 | 1017.2 |
| 20260506175005 | 12 | 0 | 0.0 | 0.0 | 0.00 | 0.94 | 0.94 | 49 | 1017.2 |
| 20260506174505 | 12 | 0 | 0.0 | 0.0 | 0.00 | 0.94 | 0.94 | 48 | 1017.2 |
| 20260506174005 | 12 | 0 | 0.0 | 0.0 | 0.00 | 0.94 | 0.94 | 47 | 1017.2 |
| 20260506173505 | 13 | 0 | 0.0 | 0.0 | 0.00 | 0.94 | 0.94 | 47 | 1017.2 |
| 20260506173005 | 13 | 0 | 0.0 | 0.0 | 0.00 | 0.94 | 0.94 | 46 | 1017.2 |
| 20260506172505 | 13 | 0 | 0.0 | 0.0 | 0.00 | 0.94 | 0.94 | 45 | 1017.2 |
| 20260506172005 | 13 | 0 | 0.0 | 0.0 | 0.00 | 0.94 | 0.94 | 44 | 1017.2 |
| 20260506171505 | 13 | 0 | 0.0 | 0.0 | 0.00 | 0.94 | 0.94 | 44 | 1017.2 |
| 20260506171005 | 13 | 0 | 0.0 | 0.0 | 0.00 | 0.94 | 0.94 | 45 | 1017.2 |
| 20260506170505 | 13 | 0 | 0.0 | 0.0 | 0.00 | 0.94 | 0.94 | 45 | 1017.2 |
| 20260506170005 | 13 | 0 | 0.0 | 0.0 | 0.00 | 0.94 | 0.94 | 44 | 1017.2 |
| 20260506165505 | 13 | 0 | 0.0 | 0.0 | 0.00 | 0.94 | 0.94 | 44 | 1017.2 |
| 20260506165005 | 13 | 0 | 0.0 | 0.0 | 0.00 | 0.94 | 0.94 | 43 | 1017.2 |
| 20260506164505 | 13 | 0 | 0.0 | 0.0 | 0.00 | 0.94 | 0.94 | 44 | 1017.2 |
| 20260506164005 | 13 | 0 | 0.0 | 0.0 | 0.00 | 0.94 | 0.94 | 44 | 1017.2 |
| 20260506163505 | 13 | 0 | 0.0 | 0.0 | 0.00 | 0.94 | 0.94 | 44 | 1017.2 |
| 20260506163005 | 13 | 0 | 0.0 | 0.0 | 0.00 | 0.94 | 0.94 | 43 | 1017.2 |
| 20260506162505 | 13 | 0 | 0.0 | 0.0 | 0.00 | 0.94 | 0.94 | 44 | 1017.2 |
| 20260506162005 | 13 | 0 | 0.0 | 0.0 | 0.00 | 0.94 | 0.94 | 43 | 1017.2 |
| 20260506161505 | 13 | 0 | 0.0 | 0.0 | 0.00 | 0.94 | 0.94 | 44 | 1017.2 |
| 20260506160005 | 13 | 0 | 0.0 | 0.0 | 0.00 | 0.94 | 0.94 | 44 | 1017.2 |
| 20260506155005 | 13 | 0 | 0.0 | 0.0 | 0.00 | 0.94 | 0.94 | 44 | 1017.2 |
| 20260506154505 | 14 | 0 | 0.0 | 0.0 | 0.00 | 0.94 | 0.94 | 46 | 1017.2 |
| 20260506154005 | 14 | 0 | 0.0 | 0.0 | 0.00 | 0.94 | 0.94 | 46 | 1018.3 |
| 20260506153505 | 14 | 0 | 0.0 | 0.0 | 0.00 | 0.94 | 0.94 | 47 | 1018.3 |
| 20260506153005 | 13 | 0 | 0.0 | 0.0 | 0.00 | 0.94 | 0.94 | 48 | 1018.3 |
| 20260506152505 | 13 | 0 | 0.0 | 0.0 | 0.00 | 0.94 | 0.94 | 47 | 1018.3 |
| 20260506152005 | 13 | 0 | 0.0 | 0.0 | 0.00 | 0.94 | 0.94 | 48 | 1018.3 |
| 20260506151505 | 13 | 0 | 0.0 | 0.0 | 0.00 | 0.94 | 0.94 | 48 | 1018.3 |
| 20260506151005 | 13 | 0 | 0.0 | 0.0 | 0.00 | 0.94 | 0.94 | 47 | 1017.2 |
| 20260506150505 | 12 | 0 | 0.0 | 0.0 | 0.00 | 0.94 | 0.94 | 47 | 1017.2 |
| 20260506150005 | 13 | 0 | 0.0 | 0.0 | 0.00 | 0.94 | 0.94 | 48 | 1017.2 |
| 20260506145505 | 13 | 0 | 0.0 | 0.0 | 0.00 | 0.94 | 0.94 | 49 | 1018.3 |
| 20260506145005 | 12 | 0 | 0.0 | 0.0 | 0.00 | 0.94 | 0.94 | 49 | 1018.3 |
| 20260506144505 | 12 | 0 | 0.0 | 0.0 | 0.00 | 0.94 | 0.94 | 49 | 1018.3 |
| 20260506144005 | 12 | 0 | 0.0 | 0.0 | 0.00 | 0.94 | 0.94 | 48 | 1018.3 |
| 20260506143505 | 12 | 0 | 0.0 | 0.0 | 0.00 | 0.94 | 0.94 | 48 | 1018.3 |
| 20260506143005 | 12 | 0 | 0.0 | 0.0 | 0.00 | 0.94 | 0.94 | 47 | 1018.3 |
| 20260506142505 | 12 | 0 | 0.0 | 0.0 | 0.00 | 0.94 | 0.94 | 45 | 1018.3 |
| 20260506142005 | 13 | 0 | 0.0 | 0.0 | 0.00 | 0.94 | 0.94 | 41 | 1018.3 |
| 20260506141505 | 13 | 0 | 0.0 | 0.0 | 0.00 | 0.94 | 0.94 | 41 | 1018.3 |
| 20260506141005 | 14 | 0 | 0.0 | 0.0 | 0.00 | 0.94 | 0.94 | 39 | 1016.1 |
| 20260506140505 | 15 | 0 | 0.0 | 0.0 | 0.00 | 0.94 | 0.94 | 38 | 1016.1 |
| 20260506140005 | 16 | 0 | 0.0 | 0.0 | 0.00 | 0.94 | 0.94 | 36 | 1016.1 |
| 20260506135504 | 17 | 0 | 0.0 | 0.0 | 0.00 | 0.94 | 0.94 | 38 | 1016.1 |
| 20260506135005 | 17 | 0 | 0.0 | 0.0 | 0.00 | 0.94 | 0.94 | 37 | 1016.1 |
| 20260506134504 | 17 | 0 | 0.0 | 0.0 | 0.00 | 0.94 | 0.94 | 36 | 1016.1 |
| 20260506134005 | 18 | 0 | 0.0 | 0.0 | 0.00 | 0.94 | 0.94 | 36 | 1016.1 |
| 20260506133505 | 19 | 0 | 0.0 | 0.0 | 0.00 | 0.94 | 0.94 | 35 | 1016.1 |
| 20260506133005 | 20 | 0 | 0.0 | 0.0 | 0.00 | 0.94 | 0.94 | 36 | 1016.1 |
| 20260506132505 | 19 | 0 | 0.0 | 0.0 | 0.00 | 0.94 | 0.94 | 39 | 1016.1 |
| 20260506132005 | 20 | 0 | 0.0 | 0.0 | 0.00 | 0.94 | 0.94 | 38 | 1016.1 |
| 20260506131505 | 19 | 0 | 0.0 | 0.0 | 0.00 | 0.94 | 0.94 | 39 | 1016.1 |
| 20260506131005 | 19 | 0 | 0.0 | 0.0 | 0.00 | 0.94 | 0.94 | 45 | 1017.2 |
| 20260506130504 | 18 | 0 | 0.0 | 0.0 | 0.00 | 0.94 | 0.94 | 48 | 1017.2 |
| 20260506130005 | 18 | 0 | 0.0 | 0.0 | 0.00 | 0.94 | 0.94 | 53 | 1017.2 |
| 20260506125504 | 16 | 0 | 0.0 | 0.0 | 0.00 | 0.94 | 0.94 | 54 | 1017.2 |
| 20260506125004 | 15 | 0 | 0.0 | 0.0 | 0.00 | 0.94 | 0.94 | 53 | 1017.2 |
| 20260506124505 | 14 | 0 | 0.0 | 0.0 | 0.00 | 0.94 | 0.94 | 51 | 1017.2 |
| 20260506124005 | 14 | 0 | 0.0 | 0.0 | 0.00 | 0.94 | 0.94 | 49 | 1016.1 |
| 20260506123504 | 14 | 0 | 0.0 | 0.0 | 0.00 | 0.94 | 0.94 | 48 | 1016.1 |
| 20260506123004 | 14 | 0 | 0.0 | 0.0 | 0.00 | 0.94 | 0.94 | 47 | 1016.1 |
| 20260506122504 | 15 | 0 | 0.0 | 0.0 | 0.00 | 0.94 | 0.94 | 45 | 1016.1 |
| 20260506122005 | 15 | 0 | 0.0 | 0.0 | 0.00 | 0.94 | 0.94 | 46 | 1016.1 |
| 20260506121505 | 16 | 0 | 0.0 | 0.0 | 0.10 | 0.94 | 0.94 | 47 | 1016.1 |
| 20260506121005 | 16 | 0 | 0.0 | 0.0 | 0.10 | 0.94 | 0.94 | 46 | 1017.2 |
| 20260506120505 | 17 | 0 | 0.0 | 0.0 | 0.10 | 0.94 | 0.94 | 49 | 1017.2 |
| 20260506120005 | 17 | 0 | 0.0 | 0.0 | 0.10 | 0.94 | 0.94 | 51 | 1017.2 |
| 20260506115505 | 16 | 0 | 0.0 | 0.0 | 0.10 | 0.94 | 0.94 | 58 | 1017.2 |
| 20260506115004 | 15 | 0 | 0.0 | 0.0 | 0.10 | 0.94 | 0.94 | 58 | 1017.2 |
| 20260506114505 | 14 | 0 | 0.0 | 0.0 | 0.10 | 0.94 | 0.94 | 58 | 1017.2 |
| 20260506114005 | 14 | 0 | 0.0 | 0.0 | 0.10 | 0.94 | 0.94 | 58 | 1017.2 |
| 20260506113504 | 14 | 0 | 0.0 | 0.0 | 0.10 | 0.94 | 0.94 | 55 | 1017.2 |
| 20260506113004 | 15 | 0 | 0.0 | 0.0 | 0.10 | 1.04 | 0.94 | 56 | 1017.2 |
| 20260506112504 | 14 | 0 | 0.0 | 0.0 | 0.10 | 1.04 | 0.94 | 54 | 1017.2 |
| 20260506112004 | 15 | 0 | 0.0 | 0.0 | 0.10 | 1.04 | 0.94 | 54 | 1017.2 |
| 20260506111504 | 15 | 0 | 0.0 | 0.0 | 0.00 | 0.94 | 0.84 | 53 | 1017.2 |
| 20260506111005 | 16 | 0 | 0.0 | 0.0 | 0.00 | 0.94 | 0.84 | 55 | 1017.2 |
| 20260506110505 | 15 | 0 | 0.0 | 0.0 | 0.00 | 0.94 | 0.84 | 55 | 1017.2 |
| 20260506110004 | 15 | 0 | 0.0 | 0.0 | 0.00 | 1.07 | 0.84 | 51 | 1017.2 |
| 20260506105504 | 16 | 0 | 0.0 | 0.0 | 0.10 | 1.07 | 0.84 | 52 | 1018.3 |
| 20260506105004 | 16 | 0 | 0.0 | 0.0 | 0.10 | 1.07 | 0.84 | 53 | 1018.3 |
| 20260506104504 | 16 | 0 | 0.0 | 0.0 | 0.10 | 1.07 | 0.84 | 57 | 1018.3 |
| 20260506104004 | 16 | 0 | 0.0 | 0.0 | 0.10 | 1.07 | 0.84 | 62 | 1018.3 |
| 20260506103504 | 15 | 0 | 0.0 | 0.0 | 0.10 | 1.17 | 0.84 | 64 | 1018.3 |
| 20260506103004 | 14 | 0 | 0.0 | 0.0 | 0.10 | 1.17 | 0.84 | 61 | 1018.3 |
| 20260506102504 | 13 | 0 | 0.0 | 0.0 | 0.10 | 1.27 | 0.84 | 58 | 1018.3 |
| 20260506102004 | 13 | 0 | 0.0 | 0.0 | 0.10 | 1.27 | 0.84 | 56 | 1018.3 |
| 20260506101504 | 13 | 0 | 0.0 | 0.0 | 0.10 | 1.27 | 0.84 | 54 | 1018.3 |
| 20260506101004 | 13 | 0 | 0.0 | 0.0 | 0.10 | 1.27 | 0.84 | 52 | 1018.3 |
| 20260506100005 | 15 | 0 | 0.0 | 0.0 | 0.10 | 1.27 | 0.84 | 48 | 1018.3 |
| 20260506095505 | 16 | 0 | 0.0 | 0.0 | 0.00 | 1.17 | 0.74 | 49 | 1017.2 |
| 20260506095004 | 17 | 0 | 0.0 | 0.0 | 0.00 | 1.17 | 0.74 | 48 | 1017.2 |
| 20260506094504 | 17 | 0 | 0.0 | 0.0 | 0.00 | 1.17 | 0.74 | 49 | 1017.2 |
| 20260506094004 | 18 | 0 | 0.0 | 0.0 | 0.00 | 1.17 | 0.74 | 51 | 1017.2 |
| 20260506093504 | 19 | 0 | 0.0 | 0.0 | 0.00 | 1.17 | 0.74 | 52 | 1017.2 |
| 20260506093004 | 20 | 0 | 0.0 | 0.0 | 0.00 | 1.17 | 0.74 | 57 | 1017.2 |
| 20260506092504 | 19 | 0 | 0.0 | 0.0 | 0.00 | 1.17 | 0.74 | 65 | 1017.2 |
| 20260506092004 | 18 | 0 | 0.0 | 0.0 | 0.00 | 1.17 | 0.74 | 74 | 1017.2 |
| 20260506091504 | 18 | 0 | 0.0 | 0.0 | 0.10 | 1.17 | 0.74 | 98 | 1017.2 |
| 20260506091004 | 17 | 0 | 0.0 | 0.0 | 0.10 | 1.17 | 0.74 | 98 | 1017.2 |
| 20260506090504 | 16 | 0 | 0.0 | 0.0 | 0.10 | 1.17 | 0.74 | 98 | 1017.2 |
| 20260506090004 | 14 | 0 | 0.0 | 0.0 | 0.10 | 1.17 | 0.74 | 98 | 1017.2 |
| 20260506085504 | 13 | 0 | 0.0 | 0.0 | 0.10 | 1.17 | 0.74 | 98 | 1017.2 |
| 20260506085004 | 12 | 0 | 0.0 | 0.0 | 0.10 | 1.17 | 0.74 | 98 | 1017.2 |
| 20260506084504 | 12 | 0 | 0.0 | 0.0 | 0.10 | 1.17 | 0.74 | 98 | 1017.2 |
| 20260506084004 | 12 | 0 | 0.0 | 0.0 | 0.10 | 1.17 | 0.74 | 94 | 1017.2 |
| 20260506083504 | 12 | 0 | 0.0 | 0.0 | 0.10 | 1.17 | 0.74 | 95 | 1017.2 |
| 20260506083004 | 12 | 0 | 0.0 | 0.0 | 0.10 | 1.17 | 0.74 | 97 | 1017.2 |
| 20260506082504 | 12 | 0 | 0.0 | 0.0 | 0.10 | 1.17 | 0.74 | 93 | 1017.2 |
| 20260506082004 | 13 | 0 | 0.0 | 0.0 | 0.10 | 1.17 | 0.74 | 95 | 1017.2 |
| 20260506081504 | 13 | 0 | 0.0 | 0.0 | 0.00 | 1.07 | 0.64 | 98 | 1017.2 |
| 20260506081005 | 14 | 0 | 0.0 | 0.0 | 0.00 | 1.07 | 0.64 | 98 | 1016.1 |
| 20260506080504 | 14 | 0 | 0.0 | 0.0 | 0.00 | 1.07 | 0.64 | 98 | 1016.1 |
| 20260506073504 | 11 | 0 | 0.0 | 0.0 | 0.00 | 1.07 | 0.64 | 98 | 1017.2 |
| 20260506073004 | 11 | 0 | 0.0 | 0.0 | 0.00 | 1.07 | 0.64 | 98 | 1017.2 |
| 20260506072504 | 11 | 0 | 0.0 | 0.0 | 0.00 | 1.07 | 0.64 | 98 | 1016.1 |
| 20260506072004 | 11 | 0 | 0.0 | 0.0 | 0.00 | 1.07 | 0.64 | 98 | 1016.1 |
| 20260506071504 | 11 | 0 | 0.0 | 0.0 | 0.00 | 1.07 | 0.64 | 98 | 1016.1 |
| 20260506071004 | 10 | 0 | 0.0 | 0.0 | 0.00 | 1.07 | 0.64 | 98 | 1016.1 |
| 20260505184504 | 13 | 0 | 0.0 | 0.0 | 0.00 | 3.81 | 2.95 | 55 | 1017.2 |
| 20260505184004 | 13 | 0 | 0.0 | 0.0 | 0.00 | 3.81 | 2.95 | 55 | 1016.1 |
| 20260505183505 | 13 | 0 | 0.0 | 0.0 | 0.00 | 3.81 | 2.95 | 53 | 1016.1 |
| 20260505183005 | 14 | 0 | 0.0 | 0.0 | 0.00 | 3.89 | 2.95 | 54 | 1016.1 |
| 20260505182505 | 14 | 0 | 0.0 | 0.0 | 0.00 | 3.89 | 2.95 | 53 | 1016.1 |
| 20260505182005 | 14 | 0 | 0.0 | 0.0 | 0.00 | 3.89 | 2.95 | 52 | 1016.1 |
| 20260505181505 | 14 | 0 | 0.0 | 0.0 | 0.00 | 3.89 | 2.95 | 52 | 1016.1 |
| 20260505181005 | 14 | 0 | 0.0 | 0.0 | 0.00 | 3.89 | 2.95 | 51 | 1016.1 |
| 20260505180505 | 14 | 0 | 0.0 | 0.0 | 0.00 | 3.89 | 2.95 | 50 | 1016.1 |
| 20260505180005 | 14 | 0 | 0.0 | 0.0 | 0.00 | 3.89 | 2.95 | 50 | 1016.1 |